CZ-3C DEB, 48545

Orbit data source: Space-Track

CZ-3C DEB, 48545 is space debris in HEO originally from a launch on Sun, 31 Oct 2010 UTC launched from the Xichang Space Center, China (XSC). Debris objects in space refer to the collection of defunct objects orbiting the Earth. Examples of debris include non-operational satellites, rocket bodies, and fragments generated from explosions, collisions, or faulty payload assembly.

Loading next visibility...
Identifier
48545, 2010-057BQ
Orbit
HEO
Country
Flag of CNCN / PRC
Related business
Manufacturer
CALT
Mission
Spacecraft
Bus & Motor
Unknown
Mass
Unknown
Launch date (UTC)
2010-10-31 (15 years ago)
Launch vehicle
Unknown
Launch site
Xichang Space Center, China (XSC)
Object type
Payload
Rocket body
Debris
Shape & HBR
Unknown shape, 0.2 m
Radar Cross Section
Medium (>0.1 m² and <1 m²)

Expand to show TLE details & history
Last TLE update: 2 days ago

TLE from 2 days ago
0 CZ-3C DEB
1 48545U 10057BQ  26118.94974906  .00025880  00000-0  83862-2 0  9997
2 48545  18.0521  16.0220 5590277 129.9943 294.2190  4.62978397124995
Epoch: 2026-04-28T22:47Z
TLE epoch observation values (Epoch: 2026-04-28T22:47:38.318Z)
Latitude
0.00003°
Longitude
177.18293°
Altitude
9,945.132 km
Speed
4.757 km/s
True Right ascension
01h 04m 02s
True Declination
0° 00' 00"
Sunlit
Object was in daylight at epoch
Visualization orbit readout
Latitude
Unknown
Longitude
Unknown
Altitude
Unknown
Speed
Unknown
Apparent Right ascension
Unknown
Apparent Declination
Unknown
Sunlit
N/A
Visualization observer readout
Local Sidereal Time
05:45:43
Azimuth
Unknown
Elevation
Unknown
Doppler factor
Unknown
Orbital elements
Apogee altitude
17,335.946 km
Perigee altitude
329.411 km
Semi-major axis
15,210.816 km
Eccentricity
0.55903
Inclination
18.0521°
RAAN
16.022°
Arg. of periapsis
129.9943°
True anomaly
229.98294°
Mean anomaly
294.219°
Eccentric anomaly
262.46561°
Mean motion
1.15695 °/min
Orbital period
311.16 mins
BSTAR
0.0083862
Loading maneuver chart data...
Computing Atmospheric mass density...
Loading historical data...
Loading historical data...
Loading historical data...
Loading historical data...
Loading historical data...
Loading historical data...
Loading historical data...

Documentation

Showing up to 5 results
|